Index of /20260503/WXO-DD/model_caps/3km/00/028
Name Last modified Size Description
Parent Directory -
20260503T00Z_MSC_CAPS_AbsoluteVorticity_IsbL-0250_RLatLon0.03_PT028H.grib2 2026-05-03 06:15 1.1M
20260503T00Z_MSC_CAPS_AbsoluteVorticity_IsbL-0500_RLatLon0.03_PT028H.grib2 2026-05-03 06:15 1.1M
20260503T00Z_MSC_CAPS_AbsoluteVorticity_IsbL-0700_RLatLon0.03_PT028H.grib2 2026-05-03 06:15 1.1M
20260503T00Z_MSC_CAPS_AbsoluteVorticity_IsbL-0850_RLatLon0.03_PT028H.grib2 2026-05-03 06:15 1.2M
20260503T00Z_MSC_CAPS_AbsoluteVorticity_IsbL-1000_RLatLon0.03_PT028H.grib2 2026-05-03 06:15 1.3M
20260503T00Z_MSC_CAPS_AirDensity_AGL-120m_RLatLon0.03_PT028H.grib2 2026-05-03 06:15 1.4M
20260503T00Z_MSC_CAPS_AirDensity_AGL-40m_RLatLon0.03_PT028H.grib2 2026-05-03 06:15 1.4M
20260503T00Z_MSC_CAPS_AirDensity_AGL-80m_RLatLon0.03_PT028H.grib2 2026-05-03 06:15 1.4M
20260503T00Z_MSC_CAPS_AirTemp_AGL-120m_RLatLon0.03_PT028H.grib2 2026-05-03 06:15 1.4M
20260503T00Z_MSC_CAPS_AirTemp_AGL-2m_RLatLon0.03_PT028H.grib2 2026-05-03 06:15 1.7M
20260503T00Z_MSC_CAPS_AirTemp_AGL-40m_RLatLon0.03_PT028H.grib2 2026-05-03 06:15 1.5M
20260503T00Z_MSC_CAPS_AirTemp_AGL-80m_RLatLon0.03_PT028H.grib2 2026-05-03 06:15 1.4M
20260503T00Z_MSC_CAPS_AirTemp_IsbL-0050_RLatLon0.03_PT028H.grib2 2026-05-03 06:15 684K
20260503T00Z_MSC_CAPS_AirTemp_IsbL-0100_RLatLon0.03_PT028H.grib2 2026-05-03 06:15 964K
20260503T00Z_MSC_CAPS_AirTemp_IsbL-0150_RLatLon0.03_PT028H.grib2 2026-05-03 06:15 748K
20260503T00Z_MSC_CAPS_AirTemp_IsbL-0175_RLatLon0.03_PT028H.grib2 2026-05-03 06:15 766K
20260503T00Z_MSC_CAPS_AirTemp_IsbL-0200_RLatLon0.03_PT028H.grib2 2026-05-03 06:15 786K
20260503T00Z_MSC_CAPS_AirTemp_IsbL-0225_RLatLon0.03_PT028H.grib2 2026-05-03 06:15 791K
20260503T00Z_MSC_CAPS_AirTemp_IsbL-0250_RLatLon0.03_PT028H.grib2 2026-05-03 06:15 1.0M
20260503T00Z_MSC_CAPS_AirTemp_IsbL-0275_RLatLon0.03_PT028H.grib2 2026-05-03 06:15 1.0M
20260503T00Z_MSC_CAPS_AirTemp_IsbL-0300_RLatLon0.03_PT028H.grib2 2026-05-03 06:15 1.0M
20260503T00Z_MSC_CAPS_AirTemp_IsbL-0350_RLatLon0.03_PT028H.grib2 2026-05-03 06:15 743K
20260503T00Z_MSC_CAPS_AirTemp_IsbL-0400_RLatLon0.03_PT028H.grib2 2026-05-03 06:15 750K
20260503T00Z_MSC_CAPS_AirTemp_IsbL-0450_RLatLon0.03_PT028H.grib2 2026-05-03 06:15 769K
20260503T00Z_MSC_CAPS_AirTemp_IsbL-0500_RLatLon0.03_PT028H.grib2 2026-05-03 06:15 785K
20260503T00Z_MSC_CAPS_AirTemp_IsbL-0550_RLatLon0.03_PT028H.grib2 2026-05-03 06:15 801K
20260503T00Z_MSC_CAPS_AirTemp_IsbL-0600_RLatLon0.03_PT028H.grib2 2026-05-03 06:15 1.0M
20260503T00Z_MSC_CAPS_AirTemp_IsbL-0650_RLatLon0.03_PT028H.grib2 2026-05-03 06:15 1.0M
20260503T00Z_MSC_CAPS_AirTemp_IsbL-0700_RLatLon0.03_PT028H.grib2 2026-05-03 06:15 939K
20260503T00Z_MSC_CAPS_AirTemp_IsbL-0750_RLatLon0.03_PT028H.grib2 2026-05-03 06:15 961K
20260503T00Z_MSC_CAPS_AirTemp_IsbL-0800_RLatLon0.03_PT028H.grib2 2026-05-03 06:15 1.0M
20260503T00Z_MSC_CAPS_AirTemp_IsbL-0850_RLatLon0.03_PT028H.grib2 2026-05-03 06:15 1.0M
20260503T00Z_MSC_CAPS_AirTemp_IsbL-0875_RLatLon0.03_PT028H.grib2 2026-05-03 06:15 1.0M
20260503T00Z_MSC_CAPS_AirTemp_IsbL-0900_RLatLon0.03_PT028H.grib2 2026-05-03 06:15 1.0M
20260503T00Z_MSC_CAPS_AirTemp_IsbL-0925_RLatLon0.03_PT028H.grib2 2026-05-03 06:15 1.1M
20260503T00Z_MSC_CAPS_AirTemp_IsbL-0950_RLatLon0.03_PT028H.grib2 2026-05-03 06:15 1.1M
20260503T00Z_MSC_CAPS_AirTemp_IsbL-0970_RLatLon0.03_PT028H.grib2 2026-05-03 06:15 1.1M
20260503T00Z_MSC_CAPS_AirTemp_IsbL-0985_RLatLon0.03_PT028H.grib2 2026-05-03 06:15 1.1M
20260503T00Z_MSC_CAPS_AirTemp_IsbL-1000_RLatLon0.03_PT028H.grib2 2026-05-03 06:15 1.0M
20260503T00Z_MSC_CAPS_AirTemp_IsbL-1015_RLatLon0.03_PT028H.grib2 2026-05-03 06:15 1.2M
20260503T00Z_MSC_CAPS_Albedo_Sfc_RLatLon0.03_PT028H.grib2 2026-05-03 06:15 2.7M
20260503T00Z_MSC_CAPS_CAPE_Sfc_RLatLon0.03_PT028H.grib2 2026-05-03 06:15 126K
20260503T00Z_MSC_CAPS_CloudWater_EAtm_RLatLon0.03_PT028H.grib2 2026-05-03 06:15 1.5M
20260503T00Z_MSC_CAPS_ConvectivePrecip-Accum_Sfc_RLatLon0.03_PT028H.grib2 2026-05-03 06:15 4.1M
20260503T00Z_MSC_CAPS_DewPointDepression_AGL-120m_RLatLon0.03_PT028H.grib2 2026-05-03 06:15 2.1M
20260503T00Z_MSC_CAPS_DewPointDepression_AGL-2m_RLatLon0.03_PT028H.grib2 2026-05-03 06:15 2.2M
20260503T00Z_MSC_CAPS_DewPointDepression_AGL-40m_RLatLon0.03_PT028H.grib2 2026-05-03 06:15 2.1M
20260503T00Z_MSC_CAPS_DewPointDepression_AGL-80m_RLatLon0.03_PT028H.grib2 2026-05-03 06:15 2.1M
20260503T00Z_MSC_CAPS_DewPointDepression_IsbL-0050_RLatLon0.03_PT028H.grib2 2026-05-03 06:15 6.9K
20260503T00Z_MSC_CAPS_DewPointDepression_IsbL-0100_RLatLon0.03_PT028H.grib2 2026-05-03 06:15 91K
20260503T00Z_MSC_CAPS_DewPointDepression_IsbL-0150_RLatLon0.03_PT028H.grib2 2026-05-03 06:15 84K
20260503T00Z_MSC_CAPS_DewPointDepression_IsbL-0175_RLatLon0.03_PT028H.grib2 2026-05-03 06:15 220K
20260503T00Z_MSC_CAPS_DewPointDepression_IsbL-0200_RLatLon0.03_PT028H.grib2 2026-05-03 06:15 390K
20260503T00Z_MSC_CAPS_DewPointDepression_IsbL-0225_RLatLon0.03_PT028H.grib2 2026-05-03 06:15 655K
20260503T00Z_MSC_CAPS_DewPointDepression_IsbL-0250_RLatLon0.03_PT028H.grib2 2026-05-03 06:15 860K
20260503T00Z_MSC_CAPS_DewPointDepression_IsbL-0275_RLatLon0.03_PT028H.grib2 2026-05-03 06:15 1.0M
20260503T00Z_MSC_CAPS_DewPointDepression_IsbL-0300_RLatLon0.03_PT028H.grib2 2026-05-03 06:15 1.0M
20260503T00Z_MSC_CAPS_DewPointDepression_IsbL-0350_RLatLon0.03_PT028H.grib2 2026-05-03 06:15 1.1M
20260503T00Z_MSC_CAPS_DewPointDepression_IsbL-0400_RLatLon0.03_PT028H.grib2 2026-05-03 06:15 1.1M
20260503T00Z_MSC_CAPS_DewPointDepression_IsbL-0450_RLatLon0.03_PT028H.grib2 2026-05-03 06:15 1.1M
20260503T00Z_MSC_CAPS_DewPointDepression_IsbL-0500_RLatLon0.03_PT028H.grib2 2026-05-03 06:15 1.2M
20260503T00Z_MSC_CAPS_DewPointDepression_IsbL-0550_RLatLon0.03_PT028H.grib2 2026-05-03 06:15 1.2M
20260503T00Z_MSC_CAPS_DewPointDepression_IsbL-0600_RLatLon0.03_PT028H.grib2 2026-05-03 06:15 1.2M
20260503T00Z_MSC_CAPS_DewPointDepression_IsbL-0650_RLatLon0.03_PT028H.grib2 2026-05-03 06:15 1.3M
20260503T00Z_MSC_CAPS_DewPointDepression_IsbL-0700_RLatLon0.03_PT028H.grib2 2026-05-03 06:15 1.3M
20260503T00Z_MSC_CAPS_DewPointDepression_IsbL-0750_RLatLon0.03_PT028H.grib2 2026-05-03 06:15 1.3M
20260503T00Z_MSC_CAPS_DewPointDepression_IsbL-0800_RLatLon0.03_PT028H.grib2 2026-05-03 06:15 1.4M
20260503T00Z_MSC_CAPS_DewPointDepression_IsbL-0850_RLatLon0.03_PT028H.grib2 2026-05-03 06:15 1.4M
20260503T00Z_MSC_CAPS_DewPointDepression_IsbL-0875_RLatLon0.03_PT028H.grib2 2026-05-03 06:15 1.4M
20260503T00Z_MSC_CAPS_DewPointDepression_IsbL-0900_RLatLon0.03_PT028H.grib2 2026-05-03 06:15 1.4M
20260503T00Z_MSC_CAPS_DewPointDepression_IsbL-0925_RLatLon0.03_PT028H.grib2 2026-05-03 06:15 1.4M
20260503T00Z_MSC_CAPS_DewPointDepression_IsbL-0950_RLatLon0.03_PT028H.grib2 2026-05-03 06:15 1.4M
20260503T00Z_MSC_CAPS_DewPointDepression_IsbL-0970_RLatLon0.03_PT028H.grib2 2026-05-03 06:15 1.4M
20260503T00Z_MSC_CAPS_DewPointDepression_IsbL-0985_RLatLon0.03_PT028H.grib2 2026-05-03 06:15 1.3M
20260503T00Z_MSC_CAPS_DewPointDepression_IsbL-1000_RLatLon0.03_PT028H.grib2 2026-05-03 06:15 1.3M
20260503T00Z_MSC_CAPS_DewPointDepression_IsbL-1015_RLatLon0.03_PT028H.grib2 2026-05-03 06:15 1.3M
20260503T00Z_MSC_CAPS_DewPoint_AGL-120m_RLatLon0.03_PT028H.grib2 2026-05-03 06:15 3.6M
20260503T00Z_MSC_CAPS_DewPoint_AGL-2m_RLatLon0.03_PT028H.grib2 2026-05-03 06:15 1.8M
20260503T00Z_MSC_CAPS_DewPoint_AGL-40m_RLatLon0.03_PT028H.grib2 2026-05-03 06:15 3.7M
20260503T00Z_MSC_CAPS_DewPoint_AGL-80m_RLatLon0.03_PT028H.grib2 2026-05-03 06:15 3.7M
20260503T00Z_MSC_CAPS_DownwardLongwaveRadiationFlux-Accum_Sfc_RLatLon0.03_PT028H.grib2 2026-05-03 06:15 2.4M
20260503T00Z_MSC_CAPS_DownwardShortwaveRadiationFlux-Accum_NTAtm_RLatLon0.03_PT028H.grib2 2026-05-03 06:15 450K
20260503T00Z_MSC_CAPS_DownwardShortwaveRadiationFlux-Accum_Sfc_RLatLon0.03_PT028H.grib2 2026-05-03 06:15 2.8M
20260503T00Z_MSC_CAPS_FreezingRain-Accum_Sfc_RLatLon0.03_PT028H.grib2 2026-05-03 06:15 796K
20260503T00Z_MSC_CAPS_GeopotentialHeight_IsbL-0050_RLatLon0.03_PT028H.grib2 2026-05-03 06:15 636K
20260503T00Z_MSC_CAPS_GeopotentialHeight_IsbL-0100_RLatLon0.03_PT028H.grib2 2026-05-03 06:15 765K
20260503T00Z_MSC_CAPS_GeopotentialHeight_IsbL-0150_RLatLon0.03_PT028H.grib2 2026-05-03 06:15 714K
20260503T00Z_MSC_CAPS_GeopotentialHeight_IsbL-0175_RLatLon0.03_PT028H.grib2 2026-05-03 06:15 729K
20260503T00Z_MSC_CAPS_GeopotentialHeight_IsbL-0200_RLatLon0.03_PT028H.grib2 2026-05-03 06:15 742K
20260503T00Z_MSC_CAPS_GeopotentialHeight_IsbL-0225_RLatLon0.03_PT028H.grib2 2026-05-03 06:15 755K
20260503T00Z_MSC_CAPS_GeopotentialHeight_IsbL-0250_RLatLon0.03_PT028H.grib2 2026-05-03 06:15 765K
20260503T00Z_MSC_CAPS_GeopotentialHeight_IsbL-0275_RLatLon0.03_PT028H.grib2 2026-05-03 06:15 776K
20260503T00Z_MSC_CAPS_GeopotentialHeight_IsbL-0300_RLatLon0.03_PT028H.grib2 2026-05-03 06:15 780K
20260503T00Z_MSC_CAPS_GeopotentialHeight_IsbL-0350_RLatLon0.03_PT028H.grib2 2026-05-03 06:15 778K
20260503T00Z_MSC_CAPS_GeopotentialHeight_IsbL-0400_RLatLon0.03_PT028H.grib2 2026-05-03 06:15 772K
20260503T00Z_MSC_CAPS_GeopotentialHeight_IsbL-0450_RLatLon0.03_PT028H.grib2 2026-05-03 06:15 766K
20260503T00Z_MSC_CAPS_GeopotentialHeight_IsbL-0500_RLatLon0.03_PT028H.grib2 2026-05-03 06:15 760K
20260503T00Z_MSC_CAPS_GeopotentialHeight_IsbL-0550_RLatLon0.03_PT028H.grib2 2026-05-03 06:15 751K
20260503T00Z_MSC_CAPS_GeopotentialHeight_IsbL-0600_RLatLon0.03_PT028H.grib2 2026-05-03 06:15 635K
20260503T00Z_MSC_CAPS_GeopotentialHeight_IsbL-0650_RLatLon0.03_PT028H.grib2 2026-05-03 06:15 631K
20260503T00Z_MSC_CAPS_GeopotentialHeight_IsbL-0700_RLatLon0.03_PT028H.grib2 2026-05-03 06:15 812K
20260503T00Z_MSC_CAPS_GeopotentialHeight_IsbL-0750_RLatLon0.03_PT028H.grib2 2026-05-03 06:15 812K
20260503T00Z_MSC_CAPS_GeopotentialHeight_IsbL-0800_RLatLon0.03_PT028H.grib2 2026-05-03 06:15 818K
20260503T00Z_MSC_CAPS_GeopotentialHeight_IsbL-0850_RLatLon0.03_PT028H.grib2 2026-05-03 06:15 828K
20260503T00Z_MSC_CAPS_GeopotentialHeight_IsbL-0875_RLatLon0.03_PT028H.grib2 2026-05-03 06:15 819K
20260503T00Z_MSC_CAPS_GeopotentialHeight_IsbL-0900_RLatLon0.03_PT028H.grib2 2026-05-03 06:15 839K
20260503T00Z_MSC_CAPS_GeopotentialHeight_IsbL-0925_RLatLon0.03_PT028H.grib2 2026-05-03 06:15 850K
20260503T00Z_MSC_CAPS_GeopotentialHeight_IsbL-0950_RLatLon0.03_PT028H.grib2 2026-05-03 06:15 849K
20260503T00Z_MSC_CAPS_GeopotentialHeight_IsbL-0970_RLatLon0.03_PT028H.grib2 2026-05-03 06:15 868K
20260503T00Z_MSC_CAPS_GeopotentialHeight_IsbL-0985_RLatLon0.03_PT028H.grib2 2026-05-03 06:15 876K
20260503T00Z_MSC_CAPS_GeopotentialHeight_IsbL-1000_RLatLon0.03_PT028H.grib2 2026-05-03 06:15 686K
20260503T00Z_MSC_CAPS_GeopotentialHeight_IsbL-1015_RLatLon0.03_PT028H.grib2 2026-05-03 06:15 693K
20260503T00Z_MSC_CAPS_GeopotentialHeight_Sfc_RLatLon0.03_PT028H.grib2 2026-05-03 06:15 1.0M
20260503T00Z_MSC_CAPS_IcePellets-Accum_Sfc_RLatLon0.03_PT028H.grib2 2026-05-03 06:15 55K
20260503T00Z_MSC_CAPS_LatentHeatNetFlux_Sfc_RLatLon0.03_PT028H.grib2 2026-05-03 06:15 1.8M
20260503T00Z_MSC_CAPS_LiftedIndex-MU-VT_IsbL-0500_RLatLon0.03_PT028H.grib2 2026-05-03 06:15 3.4M
20260503T00Z_MSC_CAPS_MixedLayerThickness_Sfc_RLatLon0.03_PT028H.nc 2026-05-03 06:12 16M
20260503T00Z_MSC_CAPS_NetLongwaveRadiationFlux-Accum_Sfc_RLatLon0.03_PT028H.grib2 2026-05-03 06:15 2.6M
20260503T00Z_MSC_CAPS_NetShortwaveRadiationFlux-Accum_Sfc_RLatLon0.03_PT028H.grib2 2026-05-03 06:15 3.2M
20260503T00Z_MSC_CAPS_PlanetaryBoundaryLayerHeight_Sfc_RLatLon0.03_PT028H.grib2 2026-05-03 06:15 2.9M
20260503T00Z_MSC_CAPS_Precip-Accum_Sfc_RLatLon0.03_PT028H.grib2 2026-05-03 06:15 4.9M
20260503T00Z_MSC_CAPS_PrecipRate_Sfc_RLatLon0.03_PT028H.grib2 2026-05-03 06:15 467K
20260503T00Z_MSC_CAPS_PrecipType-Instant_Sfc_RLatLon0.03_PT028H.grib2 2026-05-03 06:15 1.9M
20260503T00Z_MSC_CAPS_Pressure_MSL_RLatLon0.03_PT028H.grib2 2026-05-03 06:15 921K
20260503T00Z_MSC_CAPS_Pressure_Sfc_RLatLon0.03_PT028H.grib2 2026-05-03 06:15 1.2M
20260503T00Z_MSC_CAPS_RadiativeTemp_Sfc_RLatLon0.03_PT028H.grib2 2026-05-03 06:15 2.1M
20260503T00Z_MSC_CAPS_Rain-Accum_Sfc_RLatLon0.03_PT028H.grib2 2026-05-03 06:15 2.4M
20260503T00Z_MSC_CAPS_RelativeHumidity_AGL-120m_RLatLon0.03_PT028H.grib2 2026-05-03 06:15 2.8M
20260503T00Z_MSC_CAPS_RelativeHumidity_AGL-2m_RLatLon0.03_PT028H.grib2 2026-05-03 06:15 3.0M
20260503T00Z_MSC_CAPS_RelativeHumidity_AGL-40m_RLatLon0.03_PT028H.grib2 2026-05-03 06:15 2.9M
20260503T00Z_MSC_CAPS_RelativeHumidity_AGL-80m_RLatLon0.03_PT028H.grib2 2026-05-03 06:15 2.8M
20260503T00Z_MSC_CAPS_RelativeHumidity_IsbL-0050_RLatLon0.03_PT028H.grib2 2026-05-03 06:15 1.0M
20260503T00Z_MSC_CAPS_RelativeHumidity_IsbL-0100_RLatLon0.03_PT028H.grib2 2026-05-03 06:15 864K
20260503T00Z_MSC_CAPS_RelativeHumidity_IsbL-0150_RLatLon0.03_PT028H.grib2 2026-05-03 06:15 617K
20260503T00Z_MSC_CAPS_RelativeHumidity_IsbL-0175_RLatLon0.03_PT028H.grib2 2026-05-03 06:15 484K
20260503T00Z_MSC_CAPS_RelativeHumidity_IsbL-0200_RLatLon0.03_PT028H.grib2 2026-05-03 06:15 648K
20260503T00Z_MSC_CAPS_RelativeHumidity_IsbL-0225_RLatLon0.03_PT028H.grib2 2026-05-03 06:15 883K
20260503T00Z_MSC_CAPS_RelativeHumidity_IsbL-0250_RLatLon0.03_PT028H.grib2 2026-05-03 06:15 1.1M
20260503T00Z_MSC_CAPS_RelativeHumidity_IsbL-0275_RLatLon0.03_PT028H.grib2 2026-05-03 06:15 1.4M
20260503T00Z_MSC_CAPS_RelativeHumidity_IsbL-0300_RLatLon0.03_PT028H.grib2 2026-05-03 06:15 1.7M
20260503T00Z_MSC_CAPS_RelativeHumidity_IsbL-0350_RLatLon0.03_PT028H.grib2 2026-05-03 06:15 1.9M
20260503T00Z_MSC_CAPS_RelativeHumidity_IsbL-0400_RLatLon0.03_PT028H.grib2 2026-05-03 06:15 2.1M
20260503T00Z_MSC_CAPS_RelativeHumidity_IsbL-0450_RLatLon0.03_PT028H.grib2 2026-05-03 06:15 2.2M
20260503T00Z_MSC_CAPS_RelativeHumidity_IsbL-0500_RLatLon0.03_PT028H.grib2 2026-05-03 06:15 2.1M
20260503T00Z_MSC_CAPS_RelativeHumidity_IsbL-0550_RLatLon0.03_PT028H.grib2 2026-05-03 06:15 2.1M
20260503T00Z_MSC_CAPS_RelativeHumidity_IsbL-0600_RLatLon0.03_PT028H.grib2 2026-05-03 06:15 2.3M
20260503T00Z_MSC_CAPS_RelativeHumidity_IsbL-0650_RLatLon0.03_PT028H.grib2 2026-05-03 06:15 2.3M
20260503T00Z_MSC_CAPS_RelativeHumidity_IsbL-0700_RLatLon0.03_PT028H.grib2 2026-05-03 06:15 2.4M
20260503T00Z_MSC_CAPS_RelativeHumidity_IsbL-0750_RLatLon0.03_PT028H.grib2 2026-05-03 06:15 2.4M
20260503T00Z_MSC_CAPS_RelativeHumidity_IsbL-0800_RLatLon0.03_PT028H.grib2 2026-05-03 06:15 2.6M
20260503T00Z_MSC_CAPS_RelativeHumidity_IsbL-0850_RLatLon0.03_PT028H.grib2 2026-05-03 06:15 2.6M
20260503T00Z_MSC_CAPS_RelativeHumidity_IsbL-0875_RLatLon0.03_PT028H.grib2 2026-05-03 06:15 2.6M
20260503T00Z_MSC_CAPS_RelativeHumidity_IsbL-0900_RLatLon0.03_PT028H.grib2 2026-05-03 06:15 2.6M
20260503T00Z_MSC_CAPS_RelativeHumidity_IsbL-0925_RLatLon0.03_PT028H.grib2 2026-05-03 06:15 2.7M
20260503T00Z_MSC_CAPS_RelativeHumidity_IsbL-0950_RLatLon0.03_PT028H.grib2 2026-05-03 06:15 2.7M
20260503T00Z_MSC_CAPS_RelativeHumidity_IsbL-0970_RLatLon0.03_PT028H.grib2 2026-05-03 06:15 2.8M
20260503T00Z_MSC_CAPS_RelativeHumidity_IsbL-0985_RLatLon0.03_PT028H.grib2 2026-05-03 06:15 2.8M
20260503T00Z_MSC_CAPS_RelativeHumidity_IsbL-1000_RLatLon0.03_PT028H.grib2 2026-05-03 06:15 2.9M
20260503T00Z_MSC_CAPS_RelativeHumidity_IsbL-1015_RLatLon0.03_PT028H.grib2 2026-05-03 06:15 2.9M
20260503T00Z_MSC_CAPS_Runoff-Accum_Sfc_RLatLon0.03_PT028H.grib2 2026-05-03 06:15 272K
20260503T00Z_MSC_CAPS_SeaIceAreaFraction_Sfc_RLatLon0.03_PT028H.nc 2026-05-03 06:12 15M
20260503T00Z_MSC_CAPS_SeaIceCompressiveStrength_Sfc_RLatLon0.03_PT028H.nc 2026-05-03 06:12 15M
20260503T00Z_MSC_CAPS_SeaIceDivergence_Sfc_RLatLon0.03_PT028H.nc 2026-05-03 06:12 15M
20260503T00Z_MSC_CAPS_SeaIceInternalPressure_Sfc_RLatLon0.03_PT028H.nc 2026-05-03 06:12 15M
20260503T00Z_MSC_CAPS_SeaIceShear_Sfc_RLatLon0.03_PT028H.nc 2026-05-03 06:12 15M
20260503T00Z_MSC_CAPS_SeaIceSnowTemp_Sfc_RLatLon0.03_PT028H.nc 2026-05-03 06:12 14M
20260503T00Z_MSC_CAPS_SeaIceSnowVolume_Sfc_RLatLon0.03_PT028H.nc 2026-05-03 06:12 15M
20260503T00Z_MSC_CAPS_SeaIceVelocityX_Sfc_RLatLon0.03_PT028H.nc 2026-05-03 06:12 15M
20260503T00Z_MSC_CAPS_SeaIceVelocityY_Sfc_RLatLon0.03_PT028H.nc 2026-05-03 06:12 15M
20260503T00Z_MSC_CAPS_SeaIceVolume_Sfc_RLatLon0.03_PT028H.nc 2026-05-03 06:12 15M
20260503T00Z_MSC_CAPS_SeaSurfaceHeight_Sfc_RLatLon0.03_PT028H.nc 2026-05-03 06:12 16M
20260503T00Z_MSC_CAPS_SeaWaterSalinity_DBS-0.5m_RLatLon0.03_PT028H.nc 2026-05-03 06:12 16M
20260503T00Z_MSC_CAPS_SeaWaterSalinity_DBS-all_RLatLon0.03_PT028H.nc 2026-05-03 06:12 107M
20260503T00Z_MSC_CAPS_SeaWaterTemp_DBS-0.5m_RLatLon0.03_PT028H.nc 2026-05-03 06:12 14M
20260503T00Z_MSC_CAPS_SeaWaterTemp_DBS-all_RLatLon0.03_PT028H.nc 2026-05-03 06:12 88M
20260503T00Z_MSC_CAPS_SeaWaterVelocityX_DBS-0.5m_RLatLon0.03_PT028H.nc 2026-05-03 06:12 18M
20260503T00Z_MSC_CAPS_SeaWaterVelocityX_DBS-all_RLatLon0.03_PT028H.nc 2026-05-03 06:12 211M
20260503T00Z_MSC_CAPS_SeaWaterVelocityY_DBS-0.5m_RLatLon0.03_PT028H.nc 2026-05-03 06:12 17M
20260503T00Z_MSC_CAPS_SeaWaterVelocityY_DBS-all_RLatLon0.03_PT028H.nc 2026-05-03 06:12 212M
20260503T00Z_MSC_CAPS_SensibleHeatNetFlux_Sfc_RLatLon0.03_PT028H.grib2 2026-05-03 06:15 2.1M
20260503T00Z_MSC_CAPS_ShowalterIndex_IsbL-0500_RLatLon0.03_PT028H.grib2 2026-05-03 06:15 3.8M
20260503T00Z_MSC_CAPS_Snow-Accum_Sfc_RLatLon0.03_PT028H.grib2 2026-05-03 06:15 3.7M
20260503T00Z_MSC_CAPS_SnowDensity_Sfc_RLatLon0.03_PT028H.grib2 2026-05-03 06:15 1.3M
20260503T00Z_MSC_CAPS_SnowDepthWaterEquivalent_Sfc_RLatLon0.03_PT028H.grib2 2026-05-03 06:15 661K
20260503T00Z_MSC_CAPS_SnowDepth_Sfc_RLatLon0.03_PT028H.grib2 2026-05-03 06:15 1.1M
20260503T00Z_MSC_CAPS_SoilTemp_DBS-0to10cm_RLatLon0.03_PT028H.grib2 2026-05-03 06:15 1.6M
20260503T00Z_MSC_CAPS_SoilTemp_Sfc_RLatLon0.03_PT028H.grib2 2026-05-03 06:15 1.8M
20260503T00Z_MSC_CAPS_SoilVolumetricIceContent_Sfc_RLatLon0.03_PT028H.grib2 2026-05-03 06:15 1.4M
20260503T00Z_MSC_CAPS_SoilVolumetricWaterContent_DBS-0to10cm_RLatLon0.03_PT028H.grib2 2026-05-03 06:15 1.3M
20260503T00Z_MSC_CAPS_SoilVolumetricWaterContent_DBS-0to1cm_RLatLon0.03_PT028H.grib2 2026-05-03 06:15 1.7M
20260503T00Z_MSC_CAPS_SpecificHumidity_AGL-120m_RLatLon0.03_PT028H.grib2 2026-05-03 06:15 1.4M
20260503T00Z_MSC_CAPS_SpecificHumidity_AGL-2m_RLatLon0.03_PT028H.grib2 2026-05-03 06:15 1.7M
20260503T00Z_MSC_CAPS_SpecificHumidity_AGL-40m_RLatLon0.03_PT028H.grib2 2026-05-03 06:15 1.5M
20260503T00Z_MSC_CAPS_SpecificHumidity_AGL-80m_RLatLon0.03_PT028H.grib2 2026-05-03 06:15 1.4M
20260503T00Z_MSC_CAPS_SpecificHumidity_IsbL-0050_RLatLon0.03_PT028H.grib2 2026-05-03 06:15 902K
20260503T00Z_MSC_CAPS_SpecificHumidity_IsbL-0100_RLatLon0.03_PT028H.grib2 2026-05-03 06:15 1.0M
20260503T00Z_MSC_CAPS_SpecificHumidity_IsbL-0150_RLatLon0.03_PT028H.grib2 2026-05-03 06:15 776K
20260503T00Z_MSC_CAPS_SpecificHumidity_IsbL-0175_RLatLon0.03_PT028H.grib2 2026-05-03 06:15 1.0M
20260503T00Z_MSC_CAPS_SpecificHumidity_IsbL-0200_RLatLon0.03_PT028H.grib2 2026-05-03 06:15 884K
20260503T00Z_MSC_CAPS_SpecificHumidity_IsbL-0225_RLatLon0.03_PT028H.grib2 2026-05-03 06:15 850K
20260503T00Z_MSC_CAPS_SpecificHumidity_IsbL-0250_RLatLon0.03_PT028H.grib2 2026-05-03 06:15 1.1M
20260503T00Z_MSC_CAPS_SpecificHumidity_IsbL-0275_RLatLon0.03_PT028H.grib2 2026-05-03 06:15 1.1M
20260503T00Z_MSC_CAPS_SpecificHumidity_IsbL-0300_RLatLon0.03_PT028H.grib2 2026-05-03 06:15 1.1M
20260503T00Z_MSC_CAPS_SpecificHumidity_IsbL-0350_RLatLon0.03_PT028H.grib2 2026-05-03 06:15 971K
20260503T00Z_MSC_CAPS_SpecificHumidity_IsbL-0400_RLatLon0.03_PT028H.grib2 2026-05-03 06:15 963K
20260503T00Z_MSC_CAPS_SpecificHumidity_IsbL-0450_RLatLon0.03_PT028H.grib2 2026-05-03 06:15 923K
20260503T00Z_MSC_CAPS_SpecificHumidity_IsbL-0500_RLatLon0.03_PT028H.grib2 2026-05-03 06:15 1.1M
20260503T00Z_MSC_CAPS_SpecificHumidity_IsbL-0550_RLatLon0.03_PT028H.grib2 2026-05-03 06:15 1.2M
20260503T00Z_MSC_CAPS_SpecificHumidity_IsbL-0600_RLatLon0.03_PT028H.grib2 2026-05-03 06:15 1.4M
20260503T00Z_MSC_CAPS_SpecificHumidity_IsbL-0650_RLatLon0.03_PT028H.grib2 2026-05-03 06:15 1.2M
20260503T00Z_MSC_CAPS_SpecificHumidity_IsbL-0700_RLatLon0.03_PT028H.grib2 2026-05-03 06:15 1.3M
20260503T00Z_MSC_CAPS_SpecificHumidity_IsbL-0750_RLatLon0.03_PT028H.grib2 2026-05-03 06:15 1.4M
20260503T00Z_MSC_CAPS_SpecificHumidity_IsbL-0800_RLatLon0.03_PT028H.grib2 2026-05-03 06:15 1.6M
20260503T00Z_MSC_CAPS_SpecificHumidity_IsbL-0850_RLatLon0.03_PT028H.grib2 2026-05-03 06:15 1.7M
20260503T00Z_MSC_CAPS_SpecificHumidity_IsbL-0875_RLatLon0.03_PT028H.grib2 2026-05-03 06:15 1.8M
20260503T00Z_MSC_CAPS_SpecificHumidity_IsbL-0900_RLatLon0.03_PT028H.grib2 2026-05-03 06:15 1.5M
20260503T00Z_MSC_CAPS_SpecificHumidity_IsbL-0925_RLatLon0.03_PT028H.grib2 2026-05-03 06:15 1.5M
20260503T00Z_MSC_CAPS_SpecificHumidity_IsbL-0950_RLatLon0.03_PT028H.grib2 2026-05-03 06:15 1.6M
20260503T00Z_MSC_CAPS_SpecificHumidity_IsbL-0970_RLatLon0.03_PT028H.grib2 2026-05-03 06:15 1.6M
20260503T00Z_MSC_CAPS_SpecificHumidity_IsbL-0985_RLatLon0.03_PT028H.grib2 2026-05-03 06:15 1.7M
20260503T00Z_MSC_CAPS_SpecificHumidity_IsbL-1000_RLatLon0.03_PT028H.grib2 2026-05-03 06:15 1.7M
20260503T00Z_MSC_CAPS_SpecificHumidity_IsbL-1015_RLatLon0.03_PT028H.grib2 2026-05-03 06:15 1.7M
20260503T00Z_MSC_CAPS_SpecificHumidity_Sfc_RLatLon0.03_PT028H.grib2 2026-05-03 06:15 2.0M
20260503T00Z_MSC_CAPS_StormRelativeHelicity_Sfc_RLatLon0.03_PT028H.grib2 2026-05-03 06:15 2.8M
20260503T00Z_MSC_CAPS_Thickness_IsbL-1000to0500_RLatLon0.03_PT028H.grib2 2026-05-03 06:15 466K
20260503T00Z_MSC_CAPS_TotalCloudCover_Sfc_RLatLon0.03_PT028H.grib2 2026-05-03 06:15 3.6M
20260503T00Z_MSC_CAPS_TurboclineDepth_Sfc_RLatLon0.03_PT028H.nc 2026-05-03 06:12 16M
20260503T00Z_MSC_CAPS_UpwardLongwaveRadiationFlux_NTAtm_RLatLon0.03_PT028H.grib2 2026-05-03 06:15 2.9M
20260503T00Z_MSC_CAPS_UpwardShortwaveRadiationFlux_NTAtm_RLatLon0.03_PT028H.grib2 2026-05-03 06:15 1.8M
20260503T00Z_MSC_CAPS_VerticalVelocity_IsbL-0250_RLatLon0.03_PT028H.grib2 2026-05-03 06:15 1.2M
20260503T00Z_MSC_CAPS_VerticalVelocity_IsbL-0500_RLatLon0.03_PT028H.grib2 2026-05-03 06:15 1.1M
20260503T00Z_MSC_CAPS_VerticalVelocity_IsbL-0700_RLatLon0.03_PT028H.grib2 2026-05-03 06:15 954K
20260503T00Z_MSC_CAPS_VerticalVelocity_IsbL-0850_RLatLon0.03_PT028H.grib2 2026-05-03 06:15 1.5M
20260503T00Z_MSC_CAPS_VerticalVelocity_IsbL-1000_RLatLon0.03_PT028H.grib2 2026-05-03 06:15 1.4M
20260503T00Z_MSC_CAPS_WindDir_AGL-10m_RLatLon0.03_PT028H.grib2 2026-05-03 06:15 2.4M
20260503T00Z_MSC_CAPS_WindDir_AGL-120m_RLatLon0.03_PT028H.grib2 2026-05-03 06:15 1.2M
20260503T00Z_MSC_CAPS_WindDir_AGL-40m_RLatLon0.03_PT028H.grib2 2026-05-03 06:15 1.3M
20260503T00Z_MSC_CAPS_WindDir_AGL-80m_RLatLon0.03_PT028H.grib2 2026-05-03 06:15 1.3M
20260503T00Z_MSC_CAPS_WindDir_IsbL-0050_RLatLon0.03_PT028H.grib2 2026-05-03 06:15 1.0M
20260503T00Z_MSC_CAPS_WindDir_IsbL-0100_RLatLon0.03_PT028H.grib2 2026-05-03 06:15 1.0M
20260503T00Z_MSC_CAPS_WindDir_IsbL-0150_RLatLon0.03_PT028H.grib2 2026-05-03 06:15 1.0M
20260503T00Z_MSC_CAPS_WindDir_IsbL-0175_RLatLon0.03_PT028H.grib2 2026-05-03 06:15 1.1M
20260503T00Z_MSC_CAPS_WindDir_IsbL-0200_RLatLon0.03_PT028H.grib2 2026-05-03 06:15 1.1M
20260503T00Z_MSC_CAPS_WindDir_IsbL-0225_RLatLon0.03_PT028H.grib2 2026-05-03 06:15 1.1M
20260503T00Z_MSC_CAPS_WindDir_IsbL-0250_RLatLon0.03_PT028H.grib2 2026-05-03 06:15 1.1M
20260503T00Z_MSC_CAPS_WindDir_IsbL-0275_RLatLon0.03_PT028H.grib2 2026-05-03 06:15 1.1M
20260503T00Z_MSC_CAPS_WindDir_IsbL-0300_RLatLon0.03_PT028H.grib2 2026-05-03 06:15 1.1M
20260503T00Z_MSC_CAPS_WindDir_IsbL-0350_RLatLon0.03_PT028H.grib2 2026-05-03 06:15 1.1M
20260503T00Z_MSC_CAPS_WindDir_IsbL-0400_RLatLon0.03_PT028H.grib2 2026-05-03 06:15 1.1M
20260503T00Z_MSC_CAPS_WindDir_IsbL-0450_RLatLon0.03_PT028H.grib2 2026-05-03 06:15 1.2M
20260503T00Z_MSC_CAPS_WindDir_IsbL-0500_RLatLon0.03_PT028H.grib2 2026-05-03 06:15 1.2M
20260503T00Z_MSC_CAPS_WindDir_IsbL-0550_RLatLon0.03_PT028H.grib2 2026-05-03 06:15 1.2M
20260503T00Z_MSC_CAPS_WindDir_IsbL-0600_RLatLon0.03_PT028H.grib2 2026-05-03 06:15 1.2M
20260503T00Z_MSC_CAPS_WindDir_IsbL-0650_RLatLon0.03_PT028H.grib2 2026-05-03 06:15 1.3M
20260503T00Z_MSC_CAPS_WindDir_IsbL-0700_RLatLon0.03_PT028H.grib2 2026-05-03 06:15 1.4M
20260503T00Z_MSC_CAPS_WindDir_IsbL-0750_RLatLon0.03_PT028H.grib2 2026-05-03 06:15 1.5M
20260503T00Z_MSC_CAPS_WindDir_IsbL-0800_RLatLon0.03_PT028H.grib2 2026-05-03 06:15 1.6M
20260503T00Z_MSC_CAPS_WindDir_IsbL-0850_RLatLon0.03_PT028H.grib2 2026-05-03 06:15 1.7M
20260503T00Z_MSC_CAPS_WindDir_IsbL-0875_RLatLon0.03_PT028H.grib2 2026-05-03 06:15 1.8M
20260503T00Z_MSC_CAPS_WindDir_IsbL-0900_RLatLon0.03_PT028H.grib2 2026-05-03 06:15 1.9M
20260503T00Z_MSC_CAPS_WindDir_IsbL-0925_RLatLon0.03_PT028H.grib2 2026-05-03 06:15 1.9M
20260503T00Z_MSC_CAPS_WindDir_IsbL-0950_RLatLon0.03_PT028H.grib2 2026-05-03 06:15 2.0M
20260503T00Z_MSC_CAPS_WindDir_IsbL-0970_RLatLon0.03_PT028H.grib2 2026-05-03 06:15 2.1M
20260503T00Z_MSC_CAPS_WindDir_IsbL-0985_RLatLon0.03_PT028H.grib2 2026-05-03 06:16 2.2M
20260503T00Z_MSC_CAPS_WindDir_IsbL-1000_RLatLon0.03_PT028H.grib2 2026-05-03 06:16 2.3M
20260503T00Z_MSC_CAPS_WindDir_IsbL-1015_RLatLon0.03_PT028H.grib2 2026-05-03 06:16 2.3M
20260503T00Z_MSC_CAPS_WindGust-Max_AGL-10m_RLatLon0.03_PT028H.grib2 2026-05-03 06:16 2.5M
20260503T00Z_MSC_CAPS_WindGust-Min_AGL-10m_RLatLon0.03_PT028H.grib2 2026-05-03 06:16 2.4M
20260503T00Z_MSC_CAPS_WindGust_AGL-10m_RLatLon0.03_PT028H.grib2 2026-05-03 06:16 2.5M
20260503T00Z_MSC_CAPS_WindSpeed_AGL-10m_RLatLon0.03_PT028H.grib2 2026-05-03 06:16 2.1M
20260503T00Z_MSC_CAPS_WindSpeed_AGL-120m_RLatLon0.03_PT028H.grib2 2026-05-03 06:16 1.1M
20260503T00Z_MSC_CAPS_WindSpeed_AGL-40m_RLatLon0.03_PT028H.grib2 2026-05-03 06:16 1.2M
20260503T00Z_MSC_CAPS_WindSpeed_AGL-80m_RLatLon0.03_PT028H.grib2 2026-05-03 06:16 1.1M
20260503T00Z_MSC_CAPS_WindSpeed_IsbL-0050_RLatLon0.03_PT028H.grib2 2026-05-03 06:16 935K
20260503T00Z_MSC_CAPS_WindSpeed_IsbL-0100_RLatLon0.03_PT028H.grib2 2026-05-03 06:16 1.3M
20260503T00Z_MSC_CAPS_WindSpeed_IsbL-0150_RLatLon0.03_PT028H.grib2 2026-05-03 06:16 1.1M
20260503T00Z_MSC_CAPS_WindSpeed_IsbL-0175_RLatLon0.03_PT028H.grib2 2026-05-03 06:16 1.1M
20260503T00Z_MSC_CAPS_WindSpeed_IsbL-0200_RLatLon0.03_PT028H.grib2 2026-05-03 06:16 938K
20260503T00Z_MSC_CAPS_WindSpeed_IsbL-0225_RLatLon0.03_PT028H.grib2 2026-05-03 06:16 957K
20260503T00Z_MSC_CAPS_WindSpeed_IsbL-0250_RLatLon0.03_PT028H.grib2 2026-05-03 06:16 1.0M
20260503T00Z_MSC_CAPS_WindSpeed_IsbL-0275_RLatLon0.03_PT028H.grib2 2026-05-03 06:16 1.0M
20260503T00Z_MSC_CAPS_WindSpeed_IsbL-0300_RLatLon0.03_PT028H.grib2 2026-05-03 06:16 1.0M
20260503T00Z_MSC_CAPS_WindSpeed_IsbL-0350_RLatLon0.03_PT028H.grib2 2026-05-03 06:16 1.0M
20260503T00Z_MSC_CAPS_WindSpeed_IsbL-0400_RLatLon0.03_PT028H.grib2 2026-05-03 06:16 1.0M
20260503T00Z_MSC_CAPS_WindSpeed_IsbL-0450_RLatLon0.03_PT028H.grib2 2026-05-03 06:16 1.3M
20260503T00Z_MSC_CAPS_WindSpeed_IsbL-0500_RLatLon0.03_PT028H.grib2 2026-05-03 06:16 1.4M
20260503T00Z_MSC_CAPS_WindSpeed_IsbL-0550_RLatLon0.03_PT028H.grib2 2026-05-03 06:16 1.5M
20260503T00Z_MSC_CAPS_WindSpeed_IsbL-0600_RLatLon0.03_PT028H.grib2 2026-05-03 06:16 1.4M
20260503T00Z_MSC_CAPS_WindSpeed_IsbL-0650_RLatLon0.03_PT028H.grib2 2026-05-03 06:16 1.5M
20260503T00Z_MSC_CAPS_WindSpeed_IsbL-0700_RLatLon0.03_PT028H.grib2 2026-05-03 06:16 1.5M
20260503T00Z_MSC_CAPS_WindSpeed_IsbL-0750_RLatLon0.03_PT028H.grib2 2026-05-03 06:16 1.6M
20260503T00Z_MSC_CAPS_WindSpeed_IsbL-0800_RLatLon0.03_PT028H.grib2 2026-05-03 06:16 1.7M
20260503T00Z_MSC_CAPS_WindSpeed_IsbL-0850_RLatLon0.03_PT028H.grib2 2026-05-03 06:16 1.7M
20260503T00Z_MSC_CAPS_WindSpeed_IsbL-0875_RLatLon0.03_PT028H.grib2 2026-05-03 06:16 1.8M
20260503T00Z_MSC_CAPS_WindSpeed_IsbL-0900_RLatLon0.03_PT028H.grib2 2026-05-03 06:16 1.8M
20260503T00Z_MSC_CAPS_WindSpeed_IsbL-0925_RLatLon0.03_PT028H.grib2 2026-05-03 06:16 1.9M
20260503T00Z_MSC_CAPS_WindSpeed_IsbL-0950_RLatLon0.03_PT028H.grib2 2026-05-03 06:16 1.9M
20260503T00Z_MSC_CAPS_WindSpeed_IsbL-0970_RLatLon0.03_PT028H.grib2 2026-05-03 06:16 2.0M
20260503T00Z_MSC_CAPS_WindSpeed_IsbL-0985_RLatLon0.03_PT028H.grib2 2026-05-03 06:16 2.0M
20260503T00Z_MSC_CAPS_WindSpeed_IsbL-1000_RLatLon0.03_PT028H.grib2 2026-05-03 06:16 2.0M
20260503T00Z_MSC_CAPS_WindSpeed_IsbL-1015_RLatLon0.03_PT028H.grib2 2026-05-03 06:16 2.1M
20260503T00Z_MSC_CAPS_WindU_AGL-10m_RLatLon0.03_PT028H.grib2 2026-05-03 06:16 2.0M
20260503T00Z_MSC_CAPS_WindU_AGL-120m_RLatLon0.03_PT028H.grib2 2026-05-03 06:16 894K
20260503T00Z_MSC_CAPS_WindU_AGL-40m_RLatLon0.03_PT028H.grib2 2026-05-03 06:16 1.2M
20260503T00Z_MSC_CAPS_WindU_AGL-80m_RLatLon0.03_PT028H.grib2 2026-05-03 06:16 1.2M
20260503T00Z_MSC_CAPS_WindU_IsbL-0050_RLatLon0.03_PT028H.grib2 2026-05-03 06:16 937K
20260503T00Z_MSC_CAPS_WindU_IsbL-0100_RLatLon0.03_PT028H.grib2 2026-05-03 06:16 812K
20260503T00Z_MSC_CAPS_WindU_IsbL-0150_RLatLon0.03_PT028H.grib2 2026-05-03 06:16 926K
20260503T00Z_MSC_CAPS_WindU_IsbL-0175_RLatLon0.03_PT028H.grib2 2026-05-03 06:16 726K
20260503T00Z_MSC_CAPS_WindU_IsbL-0200_RLatLon0.03_PT028H.grib2 2026-05-03 06:16 869K
20260503T00Z_MSC_CAPS_WindU_IsbL-0225_RLatLon0.03_PT028H.grib2 2026-05-03 06:16 890K
20260503T00Z_MSC_CAPS_WindU_IsbL-0250_RLatLon0.03_PT028H.grib2 2026-05-03 06:16 912K
20260503T00Z_MSC_CAPS_WindU_IsbL-0275_RLatLon0.03_PT028H.grib2 2026-05-03 06:16 706K
20260503T00Z_MSC_CAPS_WindU_IsbL-0300_RLatLon0.03_PT028H.grib2 2026-05-03 06:16 713K
20260503T00Z_MSC_CAPS_WindU_IsbL-0350_RLatLon0.03_PT028H.grib2 2026-05-03 06:16 935K
20260503T00Z_MSC_CAPS_WindU_IsbL-0400_RLatLon0.03_PT028H.grib2 2026-05-03 06:16 943K
20260503T00Z_MSC_CAPS_WindU_IsbL-0450_RLatLon0.03_PT028H.grib2 2026-05-03 06:16 969K
20260503T00Z_MSC_CAPS_WindU_IsbL-0500_RLatLon0.03_PT028H.grib2 2026-05-03 06:16 1.0M
20260503T00Z_MSC_CAPS_WindU_IsbL-0550_RLatLon0.03_PT028H.grib2 2026-05-03 06:16 922K
20260503T00Z_MSC_CAPS_WindU_IsbL-0600_RLatLon0.03_PT028H.grib2 2026-05-03 06:16 957K
20260503T00Z_MSC_CAPS_WindU_IsbL-0650_RLatLon0.03_PT028H.grib2 2026-05-03 06:16 1.0M
20260503T00Z_MSC_CAPS_WindU_IsbL-0700_RLatLon0.03_PT028H.grib2 2026-05-03 06:16 1.3M
20260503T00Z_MSC_CAPS_WindU_IsbL-0750_RLatLon0.03_PT028H.grib2 2026-05-03 06:16 1.1M
20260503T00Z_MSC_CAPS_WindU_IsbL-0800_RLatLon0.03_PT028H.grib2 2026-05-03 06:16 1.1M
20260503T00Z_MSC_CAPS_WindU_IsbL-0850_RLatLon0.03_PT028H.grib2 2026-05-03 06:16 1.2M
20260503T00Z_MSC_CAPS_WindU_IsbL-0875_RLatLon0.03_PT028H.grib2 2026-05-03 06:16 1.2M
20260503T00Z_MSC_CAPS_WindU_IsbL-0900_RLatLon0.03_PT028H.grib2 2026-05-03 06:16 1.3M
20260503T00Z_MSC_CAPS_WindU_IsbL-0925_RLatLon0.03_PT028H.grib2 2026-05-03 06:16 1.3M
20260503T00Z_MSC_CAPS_WindU_IsbL-0950_RLatLon0.03_PT028H.grib2 2026-05-03 06:16 1.3M
20260503T00Z_MSC_CAPS_WindU_IsbL-0970_RLatLon0.03_PT028H.grib2 2026-05-03 06:16 1.4M
20260503T00Z_MSC_CAPS_WindU_IsbL-0985_RLatLon0.03_PT028H.grib2 2026-05-03 06:16 1.4M
20260503T00Z_MSC_CAPS_WindU_IsbL-1000_RLatLon0.03_PT028H.grib2 2026-05-03 06:16 1.8M
20260503T00Z_MSC_CAPS_WindU_IsbL-1015_RLatLon0.03_PT028H.grib2 2026-05-03 06:16 1.8M
20260503T00Z_MSC_CAPS_WindV_AGL-10m_RLatLon0.03_PT028H.grib2 2026-05-03 06:16 2.0M
20260503T00Z_MSC_CAPS_WindV_AGL-120m_RLatLon0.03_PT028H.grib2 2026-05-03 06:16 1.1M
20260503T00Z_MSC_CAPS_WindV_AGL-40m_RLatLon0.03_PT028H.grib2 2026-05-03 06:16 1.2M
20260503T00Z_MSC_CAPS_WindV_AGL-80m_RLatLon0.03_PT028H.grib2 2026-05-03 06:16 1.2M
20260503T00Z_MSC_CAPS_WindV_IsbL-0050_RLatLon0.03_PT028H.grib2 2026-05-03 06:16 759K
20260503T00Z_MSC_CAPS_WindV_IsbL-0100_RLatLon0.03_PT028H.grib2 2026-05-03 06:16 1.0M
20260503T00Z_MSC_CAPS_WindV_IsbL-0150_RLatLon0.03_PT028H.grib2 2026-05-03 06:16 715K
20260503T00Z_MSC_CAPS_WindV_IsbL-0175_RLatLon0.03_PT028H.grib2 2026-05-03 06:16 850K
20260503T00Z_MSC_CAPS_WindV_IsbL-0200_RLatLon0.03_PT028H.grib2 2026-05-03 06:16 865K
20260503T00Z_MSC_CAPS_WindV_IsbL-0225_RLatLon0.03_PT028H.grib2 2026-05-03 06:16 886K
20260503T00Z_MSC_CAPS_WindV_IsbL-0250_RLatLon0.03_PT028H.grib2 2026-05-03 06:16 699K
20260503T00Z_MSC_CAPS_WindV_IsbL-0275_RLatLon0.03_PT028H.grib2 2026-05-03 06:16 707K
20260503T00Z_MSC_CAPS_WindV_IsbL-0300_RLatLon0.03_PT028H.grib2 2026-05-03 06:16 713K
20260503T00Z_MSC_CAPS_WindV_IsbL-0350_RLatLon0.03_PT028H.grib2 2026-05-03 06:16 723K
20260503T00Z_MSC_CAPS_WindV_IsbL-0400_RLatLon0.03_PT028H.grib2 2026-05-03 06:16 944K
20260503T00Z_MSC_CAPS_WindV_IsbL-0450_RLatLon0.03_PT028H.grib2 2026-05-03 06:16 968K
20260503T00Z_MSC_CAPS_WindV_IsbL-0500_RLatLon0.03_PT028H.grib2 2026-05-03 06:16 1.0M
20260503T00Z_MSC_CAPS_WindV_IsbL-0550_RLatLon0.03_PT028H.grib2 2026-05-03 06:16 1.0M
20260503T00Z_MSC_CAPS_WindV_IsbL-0600_RLatLon0.03_PT028H.grib2 2026-05-03 06:16 954K
20260503T00Z_MSC_CAPS_WindV_IsbL-0650_RLatLon0.03_PT028H.grib2 2026-05-03 06:16 1.0M
20260503T00Z_MSC_CAPS_WindV_IsbL-0700_RLatLon0.03_PT028H.grib2 2026-05-03 06:16 1.0M
20260503T00Z_MSC_CAPS_WindV_IsbL-0750_RLatLon0.03_PT028H.grib2 2026-05-03 06:16 1.1M
20260503T00Z_MSC_CAPS_WindV_IsbL-0800_RLatLon0.03_PT028H.grib2 2026-05-03 06:16 1.1M
20260503T00Z_MSC_CAPS_WindV_IsbL-0850_RLatLon0.03_PT028H.grib2 2026-05-03 06:16 1.2M
20260503T00Z_MSC_CAPS_WindV_IsbL-0875_RLatLon0.03_PT028H.grib2 2026-05-03 06:16 1.2M
20260503T00Z_MSC_CAPS_WindV_IsbL-0900_RLatLon0.03_PT028H.grib2 2026-05-03 06:16 1.3M
20260503T00Z_MSC_CAPS_WindV_IsbL-0925_RLatLon0.03_PT028H.grib2 2026-05-03 06:16 1.3M
20260503T00Z_MSC_CAPS_WindV_IsbL-0950_RLatLon0.03_PT028H.grib2 2026-05-03 06:16 1.3M
20260503T00Z_MSC_CAPS_WindV_IsbL-0970_RLatLon0.03_PT028H.grib2 2026-05-03 06:16 1.4M
20260503T00Z_MSC_CAPS_WindV_IsbL-0985_RLatLon0.03_PT028H.grib2 2026-05-03 06:16 1.4M
20260503T00Z_MSC_CAPS_WindV_IsbL-1000_RLatLon0.03_PT028H.grib2 2026-05-03 06:16 1.8M
20260503T00Z_MSC_CAPS_WindV_IsbL-1015_RLatLon0.03_PT028H.grib2 2026-05-03 06:16 1.8M